Knox, IN

1:35 AM CDT on September 23, 2017 (GMT -0500)
Starke County

Weather History for KOXI - December, 2012

Change the Weather History Date:

Monday, December 31, 2012

  Actual Average (KRCR) Record (KRCR)
Temperature  
Mean Temperature 30 °F -  
Max Temperature 34 °F 33 °F 46 °F (2016)
Min Temperature 25 °F 17 °F 10 °F (2013)
Degree Days  
Heating Degree Days 36    
Moisture  
Dew Point 26 °F    
Average Humidity 85    
Maximum Humidity 98    
Minimum Humidity 73    
Precipitation  
Precipitation 0.00 in - - ()
Sea Level Pressure  
Sea Level Pressure 30.05 in    
Wind  
Wind Speed 12 mph (WSW)    
Max Wind Speed 20 mph    
Max Gust Speed 30 mph    
Visibility 8 miles    
Events      
Averages and records for this station are not official NWS values.
T = Trace of Precipitation, MM = Missing Value Source: NWS Daily Summary

Daily Weather History Graph

Daily Weather History Graph

Search for Another Location

Airport or City:

Trip Planner

Search our weather history database for the weather conditions in past years. The results will help you decide how hot, cold, wet, or windy it might be!

Date:

Astronomy

Dec. 31, 2012 Rise Set
Actual Time 7:12 AM CST 4:27 PM CST
Civil Twilight 6:41 AM CST 4:58 PM CST
Nautical Twilight 6:06 AM CST 5:33 PM CST
Astronomical Twilight 5:33 AM CST 6:06 PM CST
Moon 7:59 PM CST (12/31) 8:51 AM CST (12/31)
Length of Visible Light 10h 17m
Length of Day
9h 14m
Waning Gibbous, 90% of the Moon is Illuminated
Dec 31
Waning Gibbous
Jan 4
Last Quarter
Jan 11
New
Jan 18
First Quarter
Jan 26
Full

Hourly Weather History & Observations

Time (CST) Temp. Windchill Dew Point Humidity Pressure Visibility Wind Dir Wind Speed Gust Speed Precip Events Conditions
12:15 AM 25.7 °F 14.0 °F 21.0 °F 82% 30.14 in 10.0 mi SSW 13.8 mph - N/A   Clear
12:35 AM 25.7 °F 14.6 °F 21.2 °F 83% 30.13 in 10.0 mi SSW 12.7 mph - N/A   Clear
12:55 AM 25.5 °F 15.5 °F 21.2 °F 84% 30.12 in 10.0 mi SSW 10.4 mph - N/A   Clear
1:15 AM 25.7 °F 14.6 °F 21.2 °F 83% 30.12 in 10.0 mi SSW 12.7 mph - N/A   Clear
1:35 AM 25.7 °F 14.6 °F 21.2 °F 83% 30.12 in 10.0 mi SSW 12.7 mph - N/A   Clear
1:55 AM 26.2 °F 15.8 °F 21.2 °F 81% 30.10 in 10.0 mi SSW 11.5 mph 18.4 mph N/A   Clear
2:15 AM 26.4 °F 15.5 °F 21.2 °F 81% 30.12 in 10.0 mi SSW 12.7 mph 19.6 mph N/A   Clear
2:35 AM 26.8 °F 14.9 °F 21.4 °F 80% 30.10 in 10.0 mi SSW 15.0 mph - N/A   Clear
2:55 AM 27.3 °F 16.1 °F 21.6 °F 79% 30.10 in 10.0 mi SSW 13.8 mph - N/A   Clear
3:15 AM 27.5 °F 16.3 °F 21.2 °F 77% 30.09 in 10.0 mi SSW 13.8 mph - N/A   Clear
3:35 AM 27.3 °F 16.6 °F 21.4 °F 78% 30.08 in 10.0 mi SSW 12.7 mph - N/A   Clear
3:55 AM 27.5 °F 16.8 °F 21.9 °F 80% 30.09 in 10.0 mi SW 12.7 mph - N/A   Clear
4:15 AM 27.7 °F 17.1 °F 22.1 °F 80% 30.09 in 10.0 mi SSW 12.7 mph - N/A   Clear
4:35 AM 28.0 °F 18.1 °F 22.6 °F 80% 30.09 in 10.0 mi SSW 11.5 mph - N/A   Clear
4:55 AM 28.4 °F 18.0 °F 22.8 °F 80% 30.07 in 10.0 mi SW 12.7 mph 17.3 mph N/A   Clear
5:15 AM 28.9 °F 18.6 °F 23.2 °F 79% 30.08 in 10.0 mi SW 12.7 mph - N/A   Scattered Clouds
5:35 AM 29.8 °F 19.8 °F 23.7 °F 78% 30.07 in 10.0 mi SW 12.7 mph - N/A   Overcast
5:55 AM 30.2 °F 19.8 °F 23.7 °F 77% 30.05 in 10.0 mi SW 13.8 mph - N/A   Overcast
6:35 AM 30.2 °F 20.2 °F 23.9 °F 77% 30.05 in 10.0 mi SW 12.7 mph - N/A   Mostly Cloudy
6:55 AM 30.2 °F 20.8 °F 23.9 °F 77% 30.05 in 10.0 mi SW 11.5 mph - N/A   Clear
7:35 AM 30.4 °F 20.0 °F 24.1 °F 77% 30.06 in 10.0 mi SW 13.8 mph - N/A   Clear
7:55 AM 30.9 °F 21.2 °F 24.4 °F 77% 30.05 in 10.0 mi SW 12.7 mph - N/A   Clear
8:15 AM 31.1 °F 21.9 °F 24.6 °F 77% 30.06 in 10.0 mi SW 11.5 mph - N/A   Scattered Clouds
8:35 AM 31.5 °F 21.8 °F 24.8 °F 76% 30.06 in 10.0 mi SW 12.7 mph - N/A   Clear
8:55 AM 31.8 °F 22.3 °F 24.8 °F 75% 30.07 in 10.0 mi SW 12.7 mph - N/A   Clear
9:15 AM 32.0 °F 23.6 °F 25.2 °F 76% 30.06 in 10.0 mi SW 10.4 mph - N/A   Scattered Clouds
9:35 AM 32.4 °F 23.5 °F 25.3 °F 75% 30.05 in 10.0 mi SW 11.5 mph - N/A   Mostly Cloudy
9:55 AM 32.9 °F 22.8 °F 25.5 °F 74% 30.05 in 10.0 mi SW 15.0 mph - N/A   Mostly Cloudy
10:15 AM 33.3 °F 24.1 °F 25.5 °F 73% 30.05 in 10.0 mi SW 12.7 mph - N/A   Mostly Cloudy
10:35 AM 33.3 °F 25.1 °F 26.1 °F 75% 30.05 in 10.0 mi SW 10.4 mph - N/A   Overcast
10:55 AM 33.3 °F 24.6 °F 26.4 °F 76% 30.03 in 10.0 mi SW 11.5 mph - N/A   Overcast
11:15 AM 33.6 °F 24.6 °F 26.4 °F 75% 30.03 in 10.0 mi SW 12.7 mph 18.4 mph N/A   Overcast
11:35 AM 33.8 °F 23.9 °F 26.4 °F 74% 30.02 in 10.0 mi SW 15.0 mph - N/A   Overcast
11:55 AM 34.2 °F 24.0 °F 26.6 °F 74% 30.00 in 10.0 mi SW 16.1 mph - N/A   Overcast
12:15 PM 34.5 °F 24.5 °F 27.0 °F 74% 30.00 in 10.0 mi WSW 16.1 mph - N/A   Overcast
12:35 PM 34.7 °F 25.5 °F 26.8 °F 73% 30.00 in 10.0 mi WSW 13.8 mph - N/A   Overcast
12:55 PM 34.3 °F 23.2 °F 27.7 °F 77% 30.01 in 3.0 mi WSW 19.6 mph 29.9 mph N/A   Overcast
1:15 PM 32.5 °F 22.3 °F 30.4 °F 92% 30.01 in 0.8 mi WSW 15.0 mph - N/A   Overcast
1:35 PM 32.0 °F 23.0 °F 31.1 °F 96% 30.01 in 1.0 mi WSW 11.5 mph - N/A   Overcast
1:55 PM 32.0 °F 23.0 °F 31.3 °F 97% 30.01 in 1.2 mi WSW 11.5 mph - N/A   Overcast
2:15 PM 32.0 °F 24.2 °F 31.5 °F 98% 30.01 in 2.0 mi WSW 9.2 mph - N/A   Overcast
2:35 PM 32.0 °F 23.6 °F 31.5 °F 98% 30.00 in 2.0 mi SW 10.4 mph - N/A   Overcast
2:55 PM 32.0 °F 23.0 °F 31.5 °F 98% 30.01 in 1.5 mi SW 11.5 mph - N/A   Overcast
3:15 PM 32.0 °F 22.5 °F 31.5 °F 98% 30.02 in 1.2 mi SW 12.7 mph 17.3 mph N/A   Overcast
3:35 PM 31.8 °F 21.8 °F 31.1 °F 97% 30.02 in 1.2 mi WSW 13.8 mph 17.3 mph N/A   Overcast
3:55 PM 31.6 °F 23.1 °F 30.9 °F 97% 30.02 in 1.2 mi WSW 10.4 mph - N/A   Overcast
4:15 PM 31.6 °F 23.1 °F 30.9 °F 97% 30.01 in 3.0 mi WSW 10.4 mph - N/A   Overcast
4:35 PM 31.5 °F 21.4 °F 30.6 °F 96% 30.01 in 4.0 mi West 13.8 mph - N/A   Overcast
5:15 PM 30.2 °F 21.3 °F 28.6 °F 94% 30.03 in 7.0 mi West 10.4 mph - N/A   Overcast
5:35 PM 30.0 °F 21.7 °F 28.2 °F 93% 30.03 in 7.0 mi West 9.2 mph - N/A   Overcast
5:55 PM 29.7 °F 20.7 °F 28.2 °F 94% 30.03 in 10.0 mi West 10.4 mph - N/A   Overcast
6:15 PM 29.3 °F 20.8 °F 27.5 °F 93% 30.03 in 10.0 mi West 9.2 mph - N/A   Overcast
6:35 PM 29.3 °F 20.8 °F 27.5 °F 93% 30.05 in 10.0 mi West 9.2 mph - N/A   Overcast
6:55 PM 29.1 °F 21.3 °F 27.1 °F 92% 30.05 in 10.0 mi West 8.1 mph - N/A   Overcast
7:15 PM 28.8 °F 21.7 °F 26.8 °F 92% 30.04 in 10.0 mi West 6.9 mph - N/A   Overcast
7:35 PM 28.8 °F 20.9 °F 27.0 °F 93% 30.04 in 10.0 mi West 8.1 mph - N/A   Overcast
7:55 PM 28.6 °F 19.9 °F 26.8 °F 93% 30.05 in 10.0 mi West 9.2 mph - N/A   Overcast
8:35 PM 28.6 °F 20.7 °F 26.6 °F 92% 30.04 in 10.0 mi West 8.1 mph - N/A   Overcast
8:55 PM 28.4 °F 21.2 °F 26.2 °F 92% 30.03 in 10.0 mi West 6.9 mph - N/A   Overcast
9:15 PM 28.4 °F 21.2 °F 26.1 °F 91% 30.03 in 10.0 mi WNW 6.9 mph - N/A   Overcast
9:35 PM 28.0 °F 20.8 °F 25.7 °F 91% 30.05 in 10.0 mi West 6.9 mph - N/A   Scattered Clouds
10:15 PM 28.2 °F 22.0 °F 25.5 °F 90% 30.07 in 10.0 mi West 5.8 mph - N/A   Overcast
10:35 PM 28.4 °F 23.3 °F 25.3 °F 88% 30.07 in 10.0 mi WNW 4.6 mph - N/A   Overcast
10:55 PM 28.4 °F 23.3 °F 25.3 °F 88% 30.07 in 10.0 mi NW 4.6 mph - N/A   Overcast
11:15 PM 28.4 °F 21.2 °F 24.8 °F 86% 30.07 in 10.0 mi NW 6.9 mph - N/A   Overcast
11:35 PM 28.2 °F 19.5 °F 24.4 °F 86% 30.07 in 10.0 mi NNW 9.2 mph - N/A   Overcast
11:55 PM 27.9 °F 19.1 °F 24.3 °F 86% 30.07 in 7.0 mi NNW 9.2 mph - N/A   Overcast